Location: ????
(33.1659°N, 35.6604°E)
Time: 00:24:50
(UTC+00:00)

Cosmos 2184 Rocket - Pass Details

Date: 20 September 2019
Orbit: 960 x 1001 km, 82.9° (Epoch: 19 October)

Event Time Altitude Azimuth Distance (km) Brightness Sun altitude
Rises 16:26:04 0° 353° (N) 3,671 7.2 -11.0°
Reaches altitude 10° 16:28:34 10° 353° (N) 2,726 6.6 -11.5°
Maximum altitude 16:34:50 86° 266° (W) 989 4.1 -12.8°
Drops below altitude 10° 16:41:08 10° 178° (S) 2,741 6.2 -14.1°
Sets 16:43:39 0° 177° (S) 3,691 6.9 -14.6°
